FW7644 Weather Reports


time (UTC)temp
F
wind
direction
speed
knots
gust
knots
rain 1hr
in
rain 24hr
in
rain mn
in
humidity
%
barometer
mb
20260902223908 56 0.0 0.0 0.00 0.00 0.00 96 1022.4
20260902223406 56 0.0 0.0 0.00 0.00 0.00 95 1022.3
20260902222904 56 0.0 0.0 0.00 0.00 0.00 95 1022.2
20260902222402 56 0.0 0.0 0.00 0.00 0.00 95 1022.2
20260902221900 56 0.0 0.0 0.00 0.00 0.00 95 1022.2
20260902221358 56 0.0 0.0 0.00 0.00 0.00 95 1022.1
20260902220857 56 0.0 0.0 0.00 0.00 0.00 95 1022.1
20260902220355 56 0.0 0.0 0.00 0.00 0.00 95 1022.0
20260902215853 56 0.0 0.0 0.00 0.00 0.00 94 1022.0
20260902215351 57 0.0 0.0 0.00 0.00 0.00 94 1021.9
20260902214849 57 0.0 0.0 0.00 0.00 0.00 93 1021.9
20260902214348 57 0.0 0.0 0.00 0.00 0.00 93 1021.9
20260902213846 57 0.0 0.0 0.00 0.00 0.00 92 1021.9
20260902213344 57 0.0 0.0 0.00 0.00 0.00 92 1021.9
20260902212843 57 0.0 0.0 0.00 0.00 0.00 92 1021.9
20260902212341 58 0.0 0.0 0.00 0.00 0.00 91 1021.8
20260902211839 58 0.0 0.0 0.00 0.00 0.00 90 1021.8
20260902211337 58 0.0 0.0 0.00 0.00 0.00 89 1021.8
20260902210835 58 0.0 0.0 0.00 0.00 0.00 89 1021.8
20260902210334 58 0.0 0.0 0.00 0.00 0.00 89 1021.7
20260902205832 58 0.0 0.0 0.00 0.00 0.00 88 1021.7
20260902205330 58 0.0 0.0 0.00 0.00 0.00 88 1021.7
20260902204828 59 0.0 0.0 0.00 0.00 0.00 85 1021.7
20260902204326 60 0.0 0.0 0.00 0.00 0.00 83 1021.8
20260902203824 61 0.0 0.0 0.00 0.00 0.00 79 1021.8
20260902203322 61 0.0 0.0 0.00 0.00 0.00 79 1021.8
20260902202820 62 0.0 0.0 0.00 0.00 0.00 75 1021.7
20260902202319 62 0.0 0.0 0.00 0.00 0.00 76 1021.7
20260902201817 63 0.0 0.0 0.00 0.00 0.00 72 1021.7
20260902201315 62 0.0 0.0 0.00 0.00 0.00 75 1021.6
20260902200813 62 0.0 0.0 0.00 0.00 0.00 74 1021.5
20260902200311 65 0.0 0.0 0.00 0.00 0.00 69 1021.5
20260902195809 63 0.0 0.0 0.00 0.00 0.00 74 1021.5
20260902195307 64 0.0 0.0 0.00 0.00 0.00 69 1021.5
20260902194805 66 0.0 0.0 0.00 0.00 0.00 68 1021.4
20260902194304 63 0.0 0.0 0.00 0.00 0.00 74 1021.4
20260902193802 63 0.0 0.0 0.00 0.00 0.00 74 1021.4
20260902193301 64 0.0 0.0 0.00 0.00 0.00 69 1021.3
20260902192759 69 0.0 0.0 0.00 0.00 0.00 62 1021.3
20260902192257 69 0.0 0.0 0.00 0.00 0.00 62 1021.3
20260902191755 69 0.0 0.0 0.00 0.00 0.00 61 1021.3
20260902191254 68 0.0 0.0 0.00 0.00 0.00 63 1021.2
20260902190752 68 0.0 0.0 0.00 0.00 0.00 64 1021.2
20260902190251 65 0.0 0.0 0.00 0.00 0.00 69 1021.2
20260902185749 66 0.0 0.0 0.00 0.00 0.00 68 1021.1
20260902185247 66 0.0 0.0 0.00 0.00 0.00 67 1021.1
20260902184745 67 0.0 0.0 0.00 0.00 0.00 63 1021.1
20260902184244 69 0.0 0.0 0.00 0.00 0.00 60 1021.1
20260902183742 69 0.0 0.0 0.00 0.00 0.00 57 1021.0
20260902183241 70 0.0 0.0 0.00 0.00 0.00 58 1021.1
20260902182739 69 0.0 0.0 0.00 0.00 0.00 58 1021.1
20260902182237 68 0.0 0.0 0.00 0.00 0.00 59 1021.1
20260902181735 71 0.0 0.0 0.00 0.00 0.00 57 1021.1
20260902181234 71 0.0 0.0 0.00 0.00 0.00 55 1021.1
20260902180732 72 0.0 0.0 0.00 0.00 0.00 53 1021.1
20260902180230 73 0.0 0.0 0.00 0.00 0.00 52 1021.2
20260902175728 70 0.0 0.0 0.00 0.00 0.00 54 1021.2
20260902175226 70 0.0 0.0 0.00 0.00 0.00 54 1021.3
20260902174725 71 0.0 0.0 0.00 0.00 0.00 53 1021.4
20260902174223 72 0.0 0.0 0.00 0.00 0.00 52 1021.5
20260902173721 72 0.0 0.0 0.00 0.00 0.00 53 1021.6
20260902173219 72 0.0 0.0 0.00 0.00 0.00 52 1021.6
20260902172718 74 0.0 0.0 0.00 0.00 0.00 49 1021.7
20260902172216 71 0.0 0.0 0.00 0.00 0.00 54 1021.8
20260902171714 71 0.0 0.0 0.00 0.00 0.00 53 1021.8
20260902171212 72 0.0 0.0 0.00 0.00 0.00 52 1021.8
20260902170710 70 0.0 0.0 0.00 0.00 0.00 55 1021.8
20260902170208 71 0.0 0.0 0.00 0.00 0.00 52 1021.8
20260902165706 71 0.0 0.0 0.00 0.00 0.00 52 1021.9
20260902165204 72 0.0 0.0 0.00 0.00 0.00 51 1022.0
20260902164703 71 0.0 0.0 0.00 0.00 0.00 51 1022.0
20260902164201 70 0.0 0.0 0.00 0.00 0.00 54 1022.1
20260902163659 68 0.0 0.0 0.00 0.00 0.00 56 1022.2
20260902163157 68 0.0 0.0 0.00 0.00 0.00 60 1022.2
20260902162655 68 0.0 0.0 0.00 0.00 0.00 58 1022.3
20260902162154 68 0.0 0.0 0.00 0.00 0.00 58 1022.4
20260902161652 68 0.0 0.0 0.00 0.00 0.00 56 1022.3
20260902161150 72 0.0 0.0 0.00 0.00 0.00 52 1022.3
20260902160648 69 0.0 0.0 0.00 0.00 0.00 59 1022.2
20260902160147 66 0.0 0.0 0.00 0.00 0.00 62 1022.2
20260902155645 66 0.0 0.0 0.00 0.00 0.00 62 1022.2
20260902155143 67 0.0 0.0 0.00 0.00 0.00 61 1022.2
20260902154642 67 0.0 0.0 0.00 0.00 0.00 60 1022.2
20260902154140 69 0.0 0.0 0.00 0.00 0.00 57 1022.3
20260902153638 70 0.0 0.0 0.00 0.00 0.00 55 1022.3
20260902153136 67 0.0 0.0 0.00 0.00 0.00 57 1022.3
20260902152635 66 0.0 0.0 0.00 0.00 0.00 61 1022.4
20260902152133 68 0.0 0.0 0.00 0.00 0.00 56 1022.4
20260902151631 71 0.0 0.0 0.00 0.00 0.00 51 1022.4
20260902151129 71 0.0 0.0 0.00 0.00 0.00 50 1022.4
20260902150628 70 0.0 0.0 0.00 0.00 0.00 51 1022.5
20260902150126 70 0.0 0.0 0.00 0.00 0.00 53 1022.5
20260902145624 66 0.0 0.0 0.00 0.00 0.00 58 1022.5
20260902145123 64 0.0 0.0 0.00 0.00 0.00 58 1022.5
20260902144621 67 0.0 0.0 0.00 0.00 0.00 56 1022.6
20260902144119 66 0.0 0.0 0.00 0.00 0.00 58 1022.5
20260902143617 68 0.0 0.0 0.00 0.00 0.00 55 1022.6
20260902143116 71 0.0 0.0 0.00 0.00 0.00 53 1022.5
20260902142615 70 0.0 0.0 0.00 0.00 0.00 53 1022.5
20260902142113 69 0.0 0.0 0.00 0.00 0.00 57 1022.6
20260902141611 68 0.0 0.0 0.00 0.00 0.00 59 1022.6
20260902141109 67 0.0 0.0 0.00 0.00 0.00 61 1022.6
20260902140608 67 0.0 0.0 0.00 0.00 0.00 58 1022.6
20260902140106 68 0.0 0.0 0.00 0.00 0.00 57 1022.7
20260902135604 70 0.0 0.0 0.00 0.00 0.00 55 1022.7
20260902135102 67 0.0 0.0 0.00 0.00 0.00 61 1022.7
20260902134601 66 0.0 0.0 0.00 0.00 0.00 63 1022.8
20260902134059 65 0.0 0.0 0.00 0.00 0.00 65 1022.8
20260902133557 68 0.0 0.0 0.00 0.00 0.00 58 1022.9
20260902133055 69 0.0 0.0 0.00 0.00 0.00 52 1022.9
20260902132554 70 0.0 0.0 0.00 0.00 0.00 55 1022.9
20260902132052 67 0.0 0.0 0.00 0.00 0.00 61 1022.9
20260902131550 63 0.0 0.0 0.00 0.00 0.00 66 1022.9
20260902131048 65 0.0 0.0 0.00 0.00 0.00 63 1022.8
20260902130547 62 0.0 0.0 0.00 0.00 0.00 70 1022.8
20260902130045 61 0.0 0.0 0.00 0.00 0.00 73 1022.8
20260902125543 61 0.0 0.0 0.00 0.01 0.00 73 1022.7
20260902125041 62 0.0 0.0 0.00 0.01 0.00 71 1022.7
20260902124539 63 0.0 0.0 0.00 0.01 0.00 68 1022.7
20260902124036 66 0.0 0.0 0.00 0.01 0.00 64 1022.6
20260902123534 66 0.0 0.0 0.00 0.01 0.00 65 1022.5
20260902123031 64 0.0 0.0 0.00 0.01 0.00 67 1022.5
20260902122530 66 0.0 0.0 0.00 0.01 0.00 68 1022.4
20260902122028 63 0.0 0.0 0.00 0.01 0.00 69 1022.4
20260902121526 65 0.0 0.0 0.00 0.01 0.00 67 1022.4
20260902121024 66 0.0 0.0 0.00 0.01 0.00 68 1022.4
20260902120522 63 0.0 0.0 0.00 0.01 0.00 72 1022.4
20260902120019 62 0.0 0.0 0.00 0.01 0.00 73 1022.4
20260902115518 64 0.0 0.0 0.00 0.01 0.00 72 1022.3
20260902115016 58 0.0 0.0 0.00 0.01 0.00 86 1022.3
20260902114514 57 0.0 0.0 0.00 0.01 0.00 85 1022.2
20260902114012 59 0.0 0.0 0.00 0.01 0.00 79 1022.2
20260902113510 59 0.0 0.0 0.00 0.01 0.00 81 1022.2
20260902113008 60 0.0 0.0 0.00 0.01 0.00 78 1022.2
20260902112507 61 0.0 0.0 0.00 0.01 0.00 80 1022.2
20260902112005 58 0.0 0.0 0.00 0.01 0.00 89 1022.2
20260902111503 56 0.0 0.0 0.00 0.01 0.00 91 1022.2
20260902111002 57 0.0 0.0 0.00 0.01 0.00 88 1022.1
20260902110500 57 0.0 0.0 0.00 0.01 0.00 90 1022.1
20260902105958 56 0.0 0.0 0.00 0.01 0.00 94 1022.1
20260902105456 56 0.0 0.0 0.00 0.01 0.00 94 1022.1
20260902104955 56 0.0 0.0 0.00 0.01 0.00 95 1022.0
20260902104453 55 0.0 0.0 0.00 0.01 0.00 97 1021.9
20260902103952 55 0.0 0.0 0.00 0.01 0.00 98 1021.8
20260902103450 55 0.0 0.0 0.00 0.01 0.00 99 1021.8
20260902102948 55 0.0 0.0 0.00 0.01 0.00 99 1021.8
20260902102446 54 0.0 0.0 0.00 0.01 0.00 99 1021.8
20260902101944 54 0.0 0.0 0.00 0.01 0.00 99 1021.7
20260902101443 54 0.0 0.0 0.00 0.01 0.00 99 1021.5
20260902100941 54 0.0 0.0 0.00 0.01 0.00 99 1021.5
20260902100439 54 0.0 0.0 0.00 0.01 0.00 99 1021.5
20260902095937 54 0.0 0.0 0.00 0.01 0.00 99 1021.4
20260902095436 54 0.0 0.0 0.00 0.01 0.00 99 1021.3
20260902094934 54 0.0 0.0 0.00 0.01 0.00 99 1021.2
20260902094432 54 0.0 0.0 0.00 0.01 0.00 99 1021.2
20260902093930 53 0.0 0.0 0.00 0.01 0.00 99 1021.1
20260902093428 53 0.0 0.0 0.00 0.01 0.00 99 1021.0
20260902092926 52 0.0 0.0 0.00 0.01 0.00 99 1020.9
20260902092425 52 0.0 0.0 0.00 0.01 0.00 99 1020.8
20260902091923 52 0.0 0.0 0.00 0.01 0.00 99 1020.7
20260902091422 52 0.0 0.0 0.00 0.01 0.00 99 1020.7
20260902090920 52 0.0 0.0 0.00 0.01 0.00 99 1020.5
20260902090418 53 0.0 0.0 0.00 0.01 0.00 99 1020.4
20260902085916 53 0.0 0.0 0.00 0.01 0.00 99 1020.4
20260902085414 53 0.0 0.0 0.00 0.01 0.00 99 1020.3
20260902084913 53 0.0 0.0 0.00 0.01 0.00 99 1020.3
20260902084411 53 0.0 0.0 0.00 0.01 0.00 99 1020.2
20260902083910 54 0.0 0.0 0.00 0.01 0.00 99 1020.3
20260902083408 54 0.0 0.0 0.00 0.01 0.00 99 1020.3
20260902082906 54 0.0 0.0 0.00 0.01 0.00 99 1020.3
20260902082405 54 0.0 0.0 0.00 0.01 0.00 99 1020.2
20260902081903 54 0.0 0.0 0.00 0.01 0.00 99 1020.2
20260902081401 54 0.0 0.0 0.00 0.01 0.00 99 1020.0
20260902080859 54 0.0 0.0 0.00 0.01 0.00 99 1020.1
20260902080358 54 0.0 0.0 0.00 0.01 0.00 99 1020.1
20260902075856 54 0.0 0.0 0.00 0.01 0.00 99 1020.1
20260902075354 55 0.0 0.0 0.00 0.01 0.00 99 1020.1
20260902074853 55 0.0 0.0 0.00 0.01 0.00 99 1020.0
20260902074351 55 0.0 0.0 0.00 0.01 0.00 99 1020.1
20260902073850 55 0.0 0.0 0.00 0.01 0.00 99 1020.1
20260902073348 55 0.0 0.0 0.00 0.01 0.00 99 1020.1
20260902072846 54 0.0 0.0 0.00 0.01 0.00 99 1020.0
20260902072344 54 0.0 0.0 0.00 0.01 0.00 99 1020.0
20260902071843 54 0.0 0.0 0.00 0.01 0.00 99 1020.0
20260902071342 54 0.0 0.0 0.00 0.01 0.00 99 1020.0
20260902070840 53 0.0 0.0 0.00 0.01 0.00 99 1019.9
20260902070339 53 0.0 0.0 0.00 0.01 0.00 99 1019.9
20260902065837 54 0.0 0.0 0.00 0.01 0.00 99 1020.0
20260902065336 54 0.0 0.0 0.00 0.01 0.00 99 1019.9
20260902064834 55 0.0 0.0 0.00 0.01 0.00 99 1020.0
20260902064332 55 0.0 0.0 0.00 0.01 0.00 99 1020.0
20260902063830 55 0.0 0.0 0.00 0.01 0.00 99 1020.0
20260902063329 56 0.0 0.0 0.00 0.01 0.00 99 1020.1
20260902062827 56 0.0 0.0 0.00 0.01 0.00 99 1020.1
20260902062326 56 0.0 0.0 0.00 0.01 0.00 99 1020.2
20260902061824 55 0.0 0.0 0.00 0.01 0.00 99 1020.2
20260902061322 55 0.0 0.0 0.00 0.01 0.00 99 1020.2
20260902060820 55 0.0 0.0 0.00 0.01 0.00 99 1020.3
20260902060319 55 0.0 0.0 0.00 0.01 0.00 99 1020.3
20260902055817 55 0.0 0.0 0.00 0.01 0.00 99 1020.2
20260902055315 55 0.0 0.0 0.00 0.01 0.00 99 1020.2
20260902054814 55 0.0 0.0 0.00 0.01 0.00 99 1020.3
20260902054313 55 0.0 0.0 0.00 0.01 0.00 99 1020.3
20260902053811 55 0.0 0.0 0.00 0.01 0.00 99 1020.3
20260902053309 55 0.0 0.0 0.00 0.01 0.00 98 1020.4
20260902052808 56 0.0 0.0 0.00 0.01 0.00 98 1020.4
20260902052307 56 0.0 0.0 0.00 0.01 0.00 98 1020.4
20260902051805 56 0.0 0.0 0.00 0.01 0.00 97 1020.5
20260902051303 56 0.0 0.0 0.00 0.01 0.00 97 1020.5
20260902050802 56 0.0 0.0 0.00 0.01 0.00 98 1020.5
20260902050300 56 0.0 0.0 0.00 0.01 0.00 98 1020.5
20260902045758 56 0.0 0.0 0.00 0.02 0.00 98 1020.5
20260902045257 56 0.0 0.0 0.00 0.02 0.00 98 1020.5
20260902044755 56 0.0 0.0 0.00 0.02 0.00 98 1020.5
20260902044253 56 0.0 0.0 0.00 0.02 0.00 99 1020.5
20260902043752 56 0.0 0.0 0.00 0.02 0.00 99 1020.4
20260902043250 56 0.0 0.0 0.00 0.02 0.00 99 1020.4
20260902042748 56 0.0 0.0 0.00 0.02 0.00 99 1020.4
20260902042247 56 0.0 0.0 0.00 0.02 0.00 99 1020.4
20260902041745 56 0.0 0.0 0.00 0.02 0.00 99 1020.5
20260902041244 56 0.0 0.0 0.00 0.02 0.00 99 1020.5
20260902040742 56 0.0 0.0 0.00 0.02 0.00 99 1020.6
20260902040241 56 0.0 0.0 0.00 0.02 0.00 99 1020.6
20260902035739 56 0.0 0.0 0.00 0.16 0.00 99 1020.6
20260902035237 56 0.0 0.0 0.00 0.16 0.00 99 1020.6
20260902034736 56 0.0 0.0 0.00 0.16 0.00 99 1020.6
20260902034234 56 0.0 0.0 0.00 0.16 0.00 99 1020.6
20260902033732 56 0.0 0.0 0.00 0.16 0.00 99 1020.6
20260902033230 56 0.0 0.0 0.00 0.16 0.00 99 1020.6
20260902032729 56 0.0 0.0 0.00 0.16 0.00 99 1020.6
20260902032227 56 0.0 0.0 0.00 0.16 0.00 99 1020.6
20260902031726 56 0.0 0.0 0.00 0.16 0.00 99 1020.6
20260902031224 56 0.0 0.0 0.00 0.16 0.00 99 1020.6
20260902030723 56 0.0 0.0 0.00 0.16 0.00 99 1020.6
20260902030221 56 0.0 0.0 0.00 0.16 0.00 99 1020.6
20260902025218 56 0.0 0.0 0.00 0.46 0.16 99 1020.4
20260902024716 56 0.0 0.0 0.00 0.46 0.16 99 1020.4
20260902024214 56 0.0 0.0 0.00 0.46 0.16 99 1020.3
20260902023713 56 0.0 0.0 0.00 0.46 0.16 99 1020.3
20260902023211 56 0.0 0.0 0.00 0.46 0.16 99 1020.3
20260902022709 56 0.0 0.0 0.00 0.46 0.16 99 1020.3
20260902022208 56 0.0 0.0 0.00 0.46 0.16 99 1020.3
20260902021706 56 0.0 0.0 0.00 0.46 0.16 99 1020.3
20260902021205 56 0.0 0.0 0.00 0.46 0.16 99 1020.2
20260902020703 56 0.0 0.0 0.00 0.46 0.16 99 1020.2
20260902020202 56 0.0 0.0 0.00 0.46 0.16 99 1020.2
20260902015700 56 0.0 0.0 0.00 0.69 0.16 99 1020.2
20260902015158 56 0.0 0.0 0.00 0.69 0.16 99 1020.2
20260902014657 56 0.0 0.0 0.00 0.69 0.16 99 1020.2
20260902014155 55 0.0 0.0 0.00 0.69 0.16 99 1020.1
20260902013653 55 0.0 0.0 0.00 0.69 0.16 99 1020.1
20260902013152 55 0.0 0.0 0.00 0.69 0.16 99 1020.0
20260902012650 55 0.0 0.0 0.00 0.69 0.16 99 1019.9
20260902012149 55 0.0 0.0 0.00 0.69 0.16 99 1019.9
20260902011647 55 0.0 0.0 0.00 0.69 0.16 99 1019.8
20260902011145 55 0.0 0.0 0.00 0.69 0.16 99 1019.8
20260902010643 55 0.0 0.0 0.00 0.69 0.16 99 1019.8
20260902010141 55 0.0 0.0 0.00 0.69 0.16 99 1019.6
20260902005639 55 0.0 0.0 0.00 0.72 0.16 99 1019.5
20260902004636 55 0.0 0.0 0.00 0.72 0.16 99 1019.3
20260902004134 55 0.0 0.0 0.00 0.72 0.16 99 1019.3
20260902003632 56 0.0 0.0 0.00 0.72 0.16 99 1019.2
20260902003127 56 0.0 0.0 0.00 0.72 0.16 99 1019.1
20260902002625 56 0.0 0.0 0.00 0.72 0.16 99 1019.0
20260902002122 56 0.0 0.0 0.00 0.72 0.16 99 1018.9
20260902001620 56 0.0 0.0 0.00 0.72 0.16 98 1018.9
20260902001118 56 0.0 0.0 0.00 0.72 0.16 98 1018.9
20260902000616 57 0.0 0.0 0.00 0.72 0.16 98 1018.8
20260902000114 57 0.0 0.0 0.00 0.72 0.16 98 1018.7
20260901235611 57 0.0 0.0 0.00 0.82 0.16 97 1018.6
20260901235109 57 0.0 0.0 0.00 0.82 0.16 97 1018.6
20260901234105 57 0.0 0.0 0.00 0.82 0.16 95 1018.5
20260901233603 57 0.0 0.0 0.00 0.82 0.16 94 1018.4
20260901233101 57 0.0 0.0 0.00 0.82 0.16 94 1018.3
20260901232559 57 0.0 0.0 0.00 0.82 0.16 93 1018.1
20260901232058 58 0.0 0.0 0.00 0.82 0.16 93 1017.9
20260901231556 58 0.0 0.0 0.00 0.82 0.16 92 1017.9
20260901231055 58 0.0 0.0 0.00 0.82 0.16 91 1017.8
20260901230554 59 0.0 0.0 0.00 0.82 0.16 90 1017.8
20260901230052 59 0.0 0.0 0.00 0.82 0.16 89 1017.6
20260901225550 59 0.0 0.0 0.00 1.09 0.16 88 1017.4
20260901225049 59 0.0 0.0 0.00 1.09 0.16 88 1017.4
20260901224548 60 0.0 0.0 0.00 1.09 0.16 88 1017.3
20260901224046 60 0.0 0.0 0.00 1.09 0.16 88 1017.3